Weather History for KFFL - November, 2011

Change the Weather History Date:

Tuesday, November 8, 2011

  Actual Average Record
Temperature  
Mean Temperature 43 °F -  
Max Temperature 44 °F 52 °F 80 °F (1999)
Min Temperature 42 °F 33 °F -4 °F (1991)
Degree Days  
Heating Degree Days 22    
Moisture  
Dew Point 38 °F    
Average Humidity 82    
Maximum Humidity 87    
Minimum Humidity 76    
Precipitation  
Precipitation 0.40 in - - ()
Sea Level Pressure  
Sea Level Pressure 29.99 in    
Wind  
Wind Speed 17 mph (NE)    
Max Wind Speed 28 mph    
Max Gust Speed 37 mph    
Visibility 8 miles    
Events Rain    
Averages and records for this station are not official NWS values.
T = Trace of Precipitation, MM = Missing Value Source: NWS Daily Summary

Daily Weather History Graph

Daily Weather History Graph

Search for Another Location

Airport or City:

Trip Planner

Search our weather history database for the weather conditions in past years. The results will help you decide how hot, cold, wet, or windy it might be!

Date:

Astronomy

Nov. 08, 2011 Rise Set
Actual Time 6:46 AM CST 4:55 PM CST
Civil Twilight 6:17 AM CST 5:24 PM CST
Nautical Twilight 5:44 AM CST 5:57 PM CST
Astronomical Twilight 5:12 AM CST 6:29 PM CST
Moon 3:36 PM CST (11/8) 4:45 AM CST (11/8)
Length of Visible Light 11h 07m
Length of Day
10h 09m
Waxing Gibbous, 96% of the Moon is Illuminated
Nov 8
Waxing Gibbous
Nov 10
Full
Nov 18
Last Quarter
Nov 25
New
Dec 2
First Quarter

Hourly Weather History & Observations

Time (CST) Temp. Windchill Dew Point Humidity Pressure Visibility Wind Dir Wind Speed Gust Speed Precip Events Conditions
12:15 AM 44.6 °F 37.8 °F 39.2 °F 81% 30.08 in 7.0 mi NNE 15.0 mph - 0.10 in Rain Rain
12:35 AM 44.6 °F 35.5 °F 39.2 °F 81% 30.06 in 10.0 mi NNE 25.3 mph 28.8 mph 0.18 in Rain Rain
12:55 AM 42.8 °F 33.3 °F 37.4 °F 81% 30.04 in 7.0 mi NE 24.2 mph 31.1 mph 0.25 in Rain Light Rain
1:15 AM 42.8 °F 33.8 °F 37.4 °F 81% 30.01 in 10.0 mi NE 21.9 mph 31.1 mph 0.05 in Rain Light Rain
1:35 AM 42.8 °F 33.5 °F 37.4 °F 81% 30.00 in 10.0 mi NE 23.0 mph 31.1 mph 0.07 in Rain Light Rain
1:55 AM 42.8 °F 32.7 °F 37.4 °F 81% 29.99 in 10.0 mi NE 27.6 mph 36.8 mph 0.08 in Rain Rain
2:15 AM 42.8 °F 38.6 °F 39.2 °F 87% 30.03 in 10.0 mi East 6.9 mph 20.7 mph N/A Rain Light Rain
2:35 AM 42.8 °F 36.2 °F 39.2 °F 87% 30.04 in 10.0 mi NE 12.7 mph 18.4 mph N/A   Overcast
3:15 AM 44.6 °F 37.2 °F 37.4 °F 76% 30.02 in 10.0 mi NE 17.3 mph - N/A   Overcast
3:35 AM 44.6 °F 37.4 °F 37.4 °F 76% 30.01 in 7.0 mi NE 16.1 mph 21.9 mph N/A   Light Drizzle
4:15 AM 42.8 °F 34.5 °F 39.2 °F 87% 29.97 in 7.0 mi NE 18.4 mph 24.2 mph 0.01 in Rain Light Rain
4:35 AM 42.8 °F 34.0 °F 39.2 °F 87% 29.95 in 7.0 mi ENE 20.7 mph 32.2 mph 0.01 in Rain Light Rain
4:55 AM 42.8 °F 34.8 °F 39.2 °F 87% 29.97 in 7.0 mi NE 17.3 mph 27.6 mph 0.01 in   Light Drizzle
5:15 AM 42.8 °F 34.5 °F 39.2 °F 87% 29.97 in 7.0 mi NE 18.4 mph 24.2 mph N/A   Light Drizzle
5:35 AM 42.8 °F 34.5 °F 39.2 °F 87% 29.97 in 7.0 mi NE 18.4 mph 23.0 mph N/A   Light Drizzle
6:15 AM 42.8 °F 34.8 °F 37.4 °F 81% 29.95 in 7.0 mi NE 17.3 mph 21.9 mph N/A   Light Drizzle
6:35 AM 42.8 °F 34.8 °F 37.4 °F 81% 29.95 in 7.0 mi NNE 17.3 mph 23.0 mph N/A   Overcast
6:55 AM 42.8 °F 35.1 °F 37.4 °F 81% 30.00 in 7.0 mi North 16.1 mph - N/A   Overcast
7:15 AM 42.8 °F 34.8 °F 37.4 °F 81% 29.99 in 10.0 mi North 17.3 mph 24.2 mph N/A   Overcast
7:35 AM 42.8 °F 33.8 °F 37.4 °F 81% 29.99 in 2.5 mi NNE 21.9 mph 25.3 mph N/A Rain Light Rain
7:55 AM 42.8 °F 34.8 °F 37.4 °F 81% 29.99 in 2.5 mi NE 17.3 mph 25.3 mph N/A Rain Light Rain
8:15 AM 42.8 °F 34.5 °F 37.4 °F 81% 29.99 in 4.0 mi NNE 18.4 mph 26.5 mph 0.01 in   Haze
8:35 AM 42.8 °F 35.1 °F 37.4 °F 81% 29.99 in 4.0 mi NNE 16.1 mph 24.2 mph 0.01 in   Haze
8:55 AM 42.8 °F 34.8 °F 37.4 °F 81% 29.99 in 4.0 mi NNE 17.3 mph 25.3 mph 0.01 in   Overcast
9:15 AM 42.8 °F 35.4 °F 37.4 °F 81% 29.99 in 7.0 mi NNE 15.0 mph 23.0 mph N/A   Overcast
9:35 AM 42.8 °F 34.8 °F 37.4 °F 81% 30.00 in 7.0 mi NNE 17.3 mph - N/A   Overcast
9:55 AM 42.8 °F 35.1 °F 37.4 °F 81% 30.01 in 7.0 mi NNE 16.1 mph - N/A   Overcast
10:15 AM 42.8 °F 35.4 °F 37.4 °F 81% 30.02 in 7.0 mi NNE 15.0 mph 19.6 mph N/A   Overcast
10:35 AM 42.8 °F 34.8 °F 37.4 °F 81% 30.02 in 5.0 mi NNE 17.3 mph 21.9 mph N/A   Overcast
10:55 AM 42.8 °F 35.1 °F 37.4 °F 81% 30.02 in 4.0 mi NNE 16.1 mph 21.9 mph N/A   Overcast
11:15 AM 42.8 °F 35.8 °F 37.4 °F 81% 30.01 in 7.0 mi NNE 13.8 mph - N/A   Overcast
11:35 AM 42.8 °F 35.8 °F 37.4 °F 81% 30.00 in 7.0 mi NNE 13.8 mph - N/A   Overcast
11:55 AM 42.8 °F 36.2 °F 37.4 °F 81% 30.00 in 10.0 mi NNE 12.7 mph - N/A   Overcast
12:15 PM 42.8 °F 35.4 °F 37.4 °F 81% 30.00 in 10.0 mi NNE 15.0 mph - N/A   Overcast
12:35 PM 42.8 °F 35.4 °F 37.4 °F 81% 30.00 in 10.0 mi NNE 15.0 mph - N/A   Overcast
12:55 PM 42.8 °F 36.6 °F 37.4 °F 81% 30.00 in 10.0 mi NNE 11.5 mph - N/A   Overcast
1:15 PM 42.8 °F 35.8 °F 37.4 °F 81% 29.99 in 10.0 mi NNE 13.8 mph - N/A   Overcast
1:35 PM 42.8 °F 35.8 °F 37.4 °F 81% 29.99 in 10.0 mi NNE 13.8 mph - N/A   Overcast
1:55 PM 42.8 °F 36.2 °F 37.4 °F 81% 29.99 in 10.0 mi NNE 12.7 mph - N/A   Overcast
2:15 PM 42.8 °F 35.4 °F 37.4 °F 81% 29.97 in 10.0 mi NNE 15.0 mph - N/A   Overcast
2:35 PM 42.8 °F 35.8 °F 37.4 °F 81% 29.98 in 10.0 mi NNE 13.8 mph - N/A   Overcast
2:55 PM 42.8 °F 35.4 °F 37.4 °F 81% 29.97 in 7.0 mi NNE 15.0 mph - N/A   Overcast
3:15 PM 42.8 °F 35.1 °F 37.4 °F 81% 29.97 in 7.0 mi NNE 16.1 mph 19.6 mph N/A   Overcast
3:35 PM 42.8 °F 35.8 °F 37.4 °F 81% 29.97 in 7.0 mi NE 13.8 mph - N/A   Overcast
3:55 PM 42.8 °F 35.4 °F 37.4 °F 81% 29.97 in 10.0 mi NE 15.0 mph - N/A   Light Drizzle
4:15 PM 42.8 °F 35.1 °F 37.4 °F 81% 29.96 in 10.0 mi NNE 16.1 mph - N/A   Overcast
4:35 PM 42.8 °F 35.8 °F 37.4 °F 81% 29.96 in 10.0 mi NNE 13.8 mph - N/A   Overcast
4:55 PM 42.8 °F 37.0 °F 37.4 °F 81% 29.97 in 10.0 mi NNE 10.4 mph - N/A   Overcast
5:15 PM 42.8 °F 36.2 °F 37.4 °F 81% 29.97 in 10.0 mi NE 12.7 mph - N/A   Overcast
5:35 PM 42.8 °F 36.2 °F 37.4 °F 81% 29.98 in 10.0 mi NE 12.7 mph 17.3 mph N/A   Overcast
5:55 PM 42.8 °F 36.2 °F 37.4 °F 81% 29.99 in 10.0 mi NE 12.7 mph - N/A   Light Drizzle
6:15 PM 42.8 °F 36.6 °F 37.4 °F 81% 29.98 in 10.0 mi NE 11.5 mph 16.1 mph N/A   Overcast
6:35 PM 42.8 °F 36.6 °F 37.4 °F 81% 29.98 in 5.0 mi NE 11.5 mph 16.1 mph N/A Rain Light Rain
6:55 PM 42.8 °F 36.6 °F 37.4 °F 81% 29.98 in 7.0 mi NE 11.5 mph - 0.01 in Rain Light Rain
7:15 PM 42.8 °F 36.6 °F 37.4 °F 81% 29.97 in 7.0 mi NE 11.5 mph - 0.01 in Rain Light Rain
7:35 PM 42.8 °F 36.6 °F 37.4 °F 81% 29.97 in 5.0 mi NE 11.5 mph 16.1 mph 0.02 in Rain Light Rain
7:55 PM 42.8 °F 37.5 °F 37.4 °F 81% 29.96 in 5.0 mi NNE 9.2 mph - 0.02 in Rain Light Rain
8:15 PM 42.8 °F 35.1 °F 37.4 °F 81% 29.95 in 7.0 mi NNE 16.1 mph - 0.01 in Rain Light Rain
8:35 PM 42.8 °F 34.8 °F 37.4 °F 81% 29.93 in 5.0 mi NE 17.3 mph 20.7 mph 0.01 in Rain Light Rain
8:55 PM 42.8 °F 35.8 °F 37.4 °F 81% 29.93 in 7.0 mi NE 13.8 mph - 0.01 in   Overcast
9:15 PM 42.8 °F 34.8 °F 37.4 °F 81% 29.92 in 5.0 mi NE 17.3 mph - 0.01 in Rain Light Rain
9:35 PM 42.8 °F 35.8 °F 37.4 °F 81% 29.91 in 7.0 mi NE 13.8 mph - 0.03 in Rain Light Rain
9:55 PM 42.8 °F 36.2 °F 37.4 °F 81% 29.91 in 5.0 mi NNE 12.7 mph - 0.04 in Rain Rain
10:15 PM 42.8 °F 34.8 °F 37.4 °F 81% 29.89 in 7.0 mi NNE 17.3 mph 21.9 mph 0.02 in   Drizzle
10:35 PM 42.8 °F 35.4 °F 37.4 °F 81% 29.89 in 7.0 mi NNE 15.0 mph 20.7 mph 0.04 in Rain Rain
10:55 PM 42.8 °F 35.1 °F 37.4 °F 81% 29.87 in 3.0 mi NNE 16.1 mph - 0.06 in Rain Light Rain
11:15 PM 42.8 °F 34.8 °F 37.4 °F 81% 29.85 in 3.0 mi NNE 17.3 mph - 0.01 in Rain Rain
11:35 PM 42.8 °F 34.5 °F 37.4 °F 81% 29.84 in 5.0 mi NNE 18.4 mph 24.2 mph 0.03 in Rain Light Rain
11:55 PM 41.0 °F 32.2 °F 37.4 °F 87% 29.82 in 4.0 mi NNE 18.4 mph 25.3 mph 0.04 in Rain Light Rain